Regional Weather Roundup
Issued by NWS Portland, ME

Home | Current Version | Previous Version | Text Only | Print | Product List | Glossary On
Versions: 1 2 3 4 5 6 7 8 9 10 11 12 13 14 15 16 17 18 19 20 21 22 23 24 25 26 27 28 29 30 31 32 33 34 35 36 37 38 39 40 41 42 43 44 45 46 47 48 49 50
000
ASUS41 KGYX 010910
RWRGYX
WEATHER ROUNDUP FOR MAINE AND NEW HAMPSHIRE
NATIONAL WEATHER SERVICE GRAY ME
500 AM EDT SUN MAY 01 2016

MEZ002-005-006-010-012-015-018-020-021-024-026-027-029-011000-
MAINE

CITY           SKY/WX    TMP DP  RH WIND       PRES   REMARKS
PORTLAND       CLOUDY    39  35  86 CALM      30.23R
SANFORD        CLOUDY    34  28  80 CALM      30.22S
BAR HARBOR     CLEAR     30  29  96 CALM      30.26R
WISCASSET      CLOUDY    33  31  92 CALM      30.25R
ROCKLAND       CLEAR     32  31  96 CALM      30.24F
FRYEBURG       CLOUDY    34  31  88 W3        30.21S
LEWISTONAUBURN PTCLDY    32  28  86 CALM      30.21S
AUGUSTA        CLOUDY    36  35  96 SE3       30.22S
WATERVILLE     PTCLDY    35  34  96 CALM      30.20F
BANGOR         PTCLDY    34  30  85 CALM      30.24S
GREENVILLE       N/A     38  29  70 SE6       30.17S
MILLINOCKET    CLEAR     28  23  81 CALM      30.25R
HOULTON        CLEAR     24  21  88 CALM      30.22R
PRESQUE ISLE   CLEAR     22  20  92 CALM      30.24R
FRENCHVILLE    CLEAR     31  19  61 NW7       30.21F
CARIBOU        CLEAR     31  21  66 N5        30.21F
$$

NHZ002-005-008-009-011-012-014-011000-
NEW HAMPSHIRE

CITY           SKY/WX    TMP DP  RH WIND       PRES   REMARKS
PORTSMOUTH     CLOUDY    42  32  68 S3        30.20F
ROCHESTER      CLOUDY    37  33  85 NW5       30.20F
NASHUA         CLOUDY    45  31  58 CALM      30.22S
MANCHESTER     CLOUDY    46  30  53 S5        30.20S
CONCORD        CLOUDY    41  33  73 CALM      30.21S
LACONIA        CLOUDY    39  30  70 CALM      30.21F
PLYMOUTH       FAIR      38  34  86 CALM      30.21S
BERLIN         CLOUDY    29  24  82 CALM      30.19S
WHITEFIELD     CLOUDY    32  26  78 CALM      30.19R
JAFFREY        CLOUDY    43  32  65 SW5       30.19S
KEENE          CLOUDY    45  34  65 S3        30.21S
LEBANON        CLOUDY    42  35  76 CALM      30.18S
MT WASHINGTON  MOCLDY    30  18  59 W21         N/A  WCI  17
$$

VTZ005-007-008-011000-
VERMONT

CITY           SKY/WX    TMP DP  RH WIND       PRES   REMARKS
ST JOHNSBURY     N/A     37  27  67 MISG      30.18S
MONTPELIER     FAIR      38  29  70 CALM      30.21F
BURLINGTON     MOCLDY    44  30  57 CALM      30.16F
$$

MAZ007-012-024-CTZ003-RIZ002-NYZ038-NYZ072-011000-
SOUTHERN NEW ENGLAND AND NY

CITY           SKY/WX    TMP DP  RH WIND       PRES   REMARKS
BOSTON         CLOUDY    44  33  65 S5        30.24S
WORCESTER      CLOUDY    42  25  50 W12       30.19S
NANTUCKET      MOCLDY    40  35  83 NE6       30.24S
PROVIDENCE     PTCLDY    41  37  86 CALM      30.23F
HARTFORD       CLOUDY    45  36  70 SE6       30.21R
ALBANY         CLOUDY    51  35  54 S9        30.17R
NEW YORK CITY  CLOUDY    50  35  56 SE5       30.19F
$$

ANZ081-ANZ082-ANZ150-NHZ014-MEZ023>029-011000-
COASTAL MARINE OBSERVATIONS

STATION/POSITION TIME  TEMP    WIND        PRES    WAVE
                       AIR SEA DIR/SP/G            HT/PER
                 (UTC) (F)     (DEG/KT/KT) (MB)    (FT/S)
MOUNT DESERT ROC 0900   43     220/  2/  2 1024.9R
MATINICUS ROCK   0800   43     210/  5/  5 1023.8F
ISLE OF SHOALS   0800   46     210/ 12/ 13 1022.9R
CASHES LEDGE BUO 0850   45 45  200/  4/  6 1023.9R   2/ 8
GEORGES BANK BUO 0750   45 45              1023.2    7/10
$$

.............KEY..............
   WCI - WIND CHILL
   TC  - TEMPERATURE IN CELSIUS
   VSB - VISIBILITY IN MILES
   HX  - HEAT INDEX
   FAIR- INDICATES FEW OR NO CLOUDS BELOW 12,000 FT, WITH NO
         SIGNIFICANT WEATHER AND/OR OBSTRUCTIONS TO VISIBILITY.





USA.gov is the U.S. government's official web portal to all federal, state and local government web resources and services.